This is the latest recevied weather packets stored in our database for station/object PU3WIW-13. If no packets are shown the sender has not sent any weather packets the latest 10 day(s).
| Time | Temp. | Humidity | Pressure | Rain* | Wind** | Luminosity | Snow |
|---|---|---|---|---|---|---|---|
| 1777701528 | 16.11° C | 99% | 1008.5 hPa | 9.91 mm | - | - | - |
| 1777701347 | 16.11° C | 99% | 1008.4 hPa | 10.67 mm | - | - | - |
| 1777701167 | 16.11° C | 99% | 1008.5 hPa | 13.21 mm | - | - | - |
| 1777700988 | 16.11° C | 99% | 1008.2 hPa | 13.72 mm | - | - | - |
| 1777700807 | 16.11° C | 99% | 1008.1 hPa | 16.26 mm | - | - | - |
| 1777700627 | 16.11° C | 99% | 1008.2 hPa | 18.03 mm | - | - | - |
| 1777700446 | 16.11° C | 99% | 1008.5 hPa | 19.3 mm | - | - | - |
| 1777700267 | 16.11° C | 99% | 1008.6 hPa | 25.15 mm | - | - | - |
| 1777700087 | 16.11° C | 99% | 1008.4 hPa | 25.65 mm | - | - | - |
| 1777699907 | 16.11° C | 99% | 1008.5 hPa | 26.92 mm | - | - | - |
| 1777699728 | 16.11° C | 99% | 1008.7 hPa | 27.69 mm | - | - | - |
| 1777699547 | 16.11° C | 99% | 1008.6 hPa | 28.19 mm | - | - | - |
| 1777699367 | 16.11° C | 99% | 1008.6 hPa | 28.96 mm | - | - | - |
| 1777699186 | 16.11° C | 99% | 1008.7 hPa | 29.46 mm | - | - | - |
| 1777699007 | 16.11° C | 99% | 1008.9 hPa | 29.46 mm | - | - | - |
| 1777698826 | 16.11° C | 99% | 1008.9 hPa | 30.23 mm | - | - | - |
| 1777697604 | 16.11° C | 99% | 1008.7 hPa | 38.35 mm | - | - | - |
| 1777697423 | 16.11° C | 99% | 1008.5 hPa | 38.35 mm | - | - | - |
| 1777697245 | 16.11° C | 99% | 1008.9 hPa | 37.59 mm | - | - | - |
| 1777697064 | 16.11° C | 99% | 1009.5 hPa | 37.08 mm | - | - | - |
| 1777696885 | 15.56° C | 99% | 1009.1 hPa | 37.08 mm | - | - | - |
| 1777696704 | 16.11° C | 99% | 1008.2 hPa | 33.78 mm | - | - | - |
| 1777696524 | 16.67° C | 99% | 1008.7 hPa | 33.27 mm | - | - | - |
| 1777696344 | 16.11° C | 99% | 1008.6 hPa | 32 mm | - | - | - |
| 1777696164 | 16.11° C | 99% | 1008.4 hPa | 33.27 mm | - | - | - |
* Rain latest hour (hover to see other rain measurements)
** Current wind speed in m/s (hover to see current wind gust speed)